GAP2988 RPVA-RPLL

Flight info

Callsign GAP2988
Flight time N/A
Altitude 32000
Route MALAG5R MALAG W9 BIK AKDAP7R
Aircraft A320/M-SDE3FGHIRWY/LB1

Departure

Time 2026-05-07 06:26
Airport Daniel Z. Romualdez Airport (RPVA)

Arrival

Time N/A
Airport Ninoy Aquino International Airport (RPLL)
Time Latitude Longitude Altitude Speed Heading
2026-05-07 06:25 11.21835 125.02714 17 ft 0 kts
2026-05-07 06:25 11.21836 125.02714 17 ft 2 kts
2026-05-07 06:26 11.21988 125.02725 19 ft 55 kts
2026-05-07 06:26 11.22597 125.02766 18 ft 117 kts
2026-05-07 06:26 11.23578 125.02838 64 ft 158 kts
2026-05-07 06:26 11.24664 125.02936 667 ft 155 kts
2026-05-07 06:27 11.25735 125.03020 1287 ft 154 kts 10°
2026-05-07 06:27 11.26823 125.03087 1790 ft 161 kts
2026-05-07 06:27 11.28000 125.03160 2248 ft 178 kts 10°
2026-05-07 06:27 11.29292 125.03245 2744 ft 193 kts
2026-05-07 06:28 11.30664 125.03337 3117 ft 208 kts
2026-05-07 06:28 11.32183 125.03436 3451 ft 225 kts
2026-05-07 06:28 11.33773 125.03162 3840 ft 249 kts 336°
2026-05-07 06:28 11.35241 125.02101 4357 ft 269 kts 320°
2026-05-07 06:29 11.36609 125.00705 4867 ft 285 kts 315°
2026-05-07 06:29 11.37960 124.99188 5570 ft 291 kts 314°
2026-05-07 06:29 11.39328 124.97660 6380 ft 293 kts 315°
2026-05-07 06:29 11.40742 124.96143 7097 ft 297 kts 316°
2026-05-07 06:30 11.42204 124.94642 7802 ft 301 kts 318°
2026-05-07 06:30 11.43715 124.93137 8519 ft 304 kts 319°
2026-05-07 06:30 11.45249 124.91636 9232 ft 307 kts 319°
2026-05-07 06:30 11.46805 124.90126 9904 ft 311 kts 319°
2026-05-07 06:31 11.48381 124.88601 10325 ft 324 kts 319°
2026-05-07 06:31 11.50060 124.86981 10635 ft 340 kts 319°
2026-05-07 06:31 11.51817 124.85280 10974 ft 354 kts 319°
2026-05-07 06:31 11.53615 124.83534 11518 ft 359 kts 319°
2026-05-07 06:32 11.55429 124.81766 12157 ft 362 kts 319°
2026-05-07 06:32 11.57257 124.79983 12755 ft 365 kts 319°
2026-05-07 06:32 11.59250 124.78371 13374 ft 365 kts 329°
2026-05-07 06:32 11.61387 124.76944 13951 ft 368 kts 329°
2026-05-07 06:33 11.63537 124.75504 14475 ft 371 kts 329°
2026-05-07 06:33 11.65702 124.74051 14999 ft 374 kts 329°
2026-05-07 06:33 11.67881 124.72585 15538 ft 376 kts 329°
2026-05-07 06:33 11.70075 124.71107 16038 ft 379 kts 329°
2026-05-07 06:34 11.72260 124.69634 16540 ft 382 kts 329°
2026-05-07 06:34 11.74484 124.68134 17047 ft 384 kts 329°
2026-05-07 06:34 11.76724 124.66621 17537 ft 387 kts 328°
2026-05-07 06:34 11.78979 124.65099 18034 ft 390 kts 328°
2026-05-07 06:35 11.81252 124.63566 18460 ft 392 kts 329°
2026-05-07 06:35 11.83538 124.62026 18873 ft 395 kts 328°
2026-05-07 06:35 11.85838 124.60479 19303 ft 397 kts 328°
2026-05-07 06:35 11.88153 124.58920 19729 ft 399 kts 328°
2026-05-07 06:36 11.90477 124.57354 20155 ft 401 kts 328°
2026-05-07 06:36 11.92788 124.55795 20586 ft 404 kts 328°
2026-05-07 06:36 11.95135 124.54207 21006 ft 406 kts 328°
2026-05-07 06:36 11.97500 124.52606 21431 ft 409 kts 328°
2026-05-07 06:37 11.99881 124.50994 21852 ft 411 kts 328°
2026-05-07 06:37 12.02269 124.49377 22273 ft 413 kts 328°
2026-05-07 06:37 12.04673 124.47749 22685 ft 416 kts 328°
2026-05-07 06:37 12.07094 124.46114 23096 ft 418 kts 328°
2026-05-07 06:38 12.09531 124.44471 23477 ft 421 kts 328°
2026-05-07 06:38 12.11983 124.42818 23795 ft 423 kts 328°
2026-05-07 06:38 12.14445 124.41155 24137 ft 424 kts 328°
2026-05-07 06:38 12.16913 124.39488 24461 ft 426 kts 328°
2026-05-07 06:39 12.19392 124.37813 24787 ft 428 kts 328°
2026-05-07 06:39 12.21848 124.36152 25102 ft 429 kts 328°
2026-05-07 06:39 12.24338 124.34464 25425 ft 431 kts 328°
2026-05-07 06:39 12.26840 124.32768 25737 ft 432 kts 328°
2026-05-07 06:40 12.29350 124.31070 26047 ft 434 kts 328°
2026-05-07 06:40 12.31877 124.29361 26346 ft 435 kts 328°
2026-05-07 06:40 12.33584 124.28206 26552 ft 436 kts 328°
2026-05-07 06:40 12.36945 124.25929 26942 ft 438 kts 327°
2026-05-07 06:41 12.38609 124.24760 27130 ft 439 kts 326°
2026-05-07 06:41 12.41083 124.22912 27408 ft 441 kts 324°
2026-05-07 06:41 12.43515 124.20996 27700 ft 442 kts 323°
2026-05-07 06:41 12.45934 124.19043 27989 ft 443 kts 322°
2026-05-07 06:42 12.48360 124.17081 28264 ft 445 kts 322°
2026-05-07 06:42 12.50800 124.15125 28523 ft 446 kts 322°
2026-05-07 06:42 12.53264 124.13176 28789 ft 448 kts 323°
2026-05-07 06:42 12.55743 124.11238 29050 ft 449 kts 323°
2026-05-07 06:43 12.58239 124.09300 29312 ft 450 kts 323°
2026-05-07 06:43 12.60738 124.07362 29563 ft 452 kts 323°
2026-05-07 06:43 12.63250 124.05409 29813 ft 453 kts 323°
2026-05-07 06:43 12.65729 124.03474 30026 ft 454 kts 322°
2026-05-07 06:44 12.68249 124.01499 30221 ft 455 kts 322°
2026-05-07 06:44 12.70767 123.99525 30428 ft 456 kts 322°
2026-05-07 06:44 12.73295 123.97543 30610 ft 457 kts 322°
2026-05-07 06:44 12.75823 123.95563 30795 ft 458 kts 322°
2026-05-07 06:45 12.78360 123.93575 31010 ft 459 kts 322°
2026-05-07 06:45 12.80895 123.91589 31274 ft 458 kts 322°
2026-05-07 06:45 12.83421 123.89612 31553 ft 456 kts 321°
2026-05-07 06:45 12.85943 123.87637 31786 ft 456 kts 321°
2026-05-07 06:46 12.90986 123.83685 31863 ft 464 kts 321°
2026-05-07 06:46 12.96156 123.79631 31861 ft 472 kts 321°
2026-05-07 06:47 13.01395 123.75515 31860 ft 475 kts 321°
2026-05-07 06:47 13.06650 123.71390 31866 ft 475 kts 321°
2026-05-07 06:48 13.11626 123.66961 31863 ft 473 kts 310°
2026-05-07 06:48 13.15358 123.61468 31870 ft 472 kts 302°
2026-05-07 06:49 13.18936 123.55816 31869 ft 472 kts 302°
2026-05-07 06:49 13.22532 123.50182 31867 ft 472 kts 302°
2026-05-07 06:50 13.26140 123.44533 31862 ft 473 kts 302°
2026-05-07 06:50 13.29737 123.38875 31861 ft 473 kts 302°
2026-05-07 06:51 13.33329 123.33206 31857 ft 474 kts 302°
2026-05-07 06:51 13.36931 123.27531 31851 ft 474 kts 302°
2026-05-07 06:52 13.40513 123.21889 31847 ft 475 kts 302°
2026-05-07 06:52 13.44126 123.16199 31849 ft 476 kts 302°
2026-05-07 06:53 13.47739 123.10499 31862 ft 476 kts 302°
2026-05-07 06:53 13.51349 123.04793 31864 ft 476 kts 302°
2026-05-07 06:54 13.54968 122.99085 31868 ft 476 kts 302°
2026-05-07 06:54 13.58587 122.93367 31865 ft 476 kts 302°
2026-05-07 06:55 13.62157 122.87710 31837 ft 466 kts 302°
2026-05-07 06:55 13.63898 122.84951 31607 ft 452 kts 302°
2026-05-07 06:55 13.65584 122.82284 31373 ft 439 kts 302°
2026-05-07 06:56 13.67228 122.79678 31137 ft 428 kts 302°
2026-05-07 06:56 13.68825 122.77143 30910 ft 417 kts 302°
2026-05-07 06:56 13.70385 122.74671 30678 ft 408 kts 302°
2026-05-07 06:56 13.71928 122.72225 30450 ft 406 kts 302°
2026-05-07 06:57 13.73468 122.69786 30224 ft 406 kts 302°
2026-05-07 06:57 13.75005 122.67351 29997 ft 405 kts 302°
2026-05-07 06:57 13.76536 122.64923 29745 ft 404 kts 303°
2026-05-07 06:57 13.78046 122.62527 29482 ft 402 kts 302°
2026-05-07 06:58 13.79565 122.60116 29212 ft 401 kts 303°
2026-05-07 06:58 13.81078 122.57714 28965 ft 400 kts 303°
2026-05-07 06:58 13.82589 122.55315 28702 ft 398 kts 303°
2026-05-07 06:58 13.84094 122.52922 28442 ft 397 kts 303°
2026-05-07 06:59 13.85591 122.50540 28187 ft 396 kts 303°
2026-05-07 06:59 13.87083 122.48164 27936 ft 394 kts 303°
2026-05-07 06:59 13.88572 122.45794 27687 ft 393 kts 303°
2026-05-07 06:59 13.90056 122.43435 27440 ft 392 kts 303°
2026-05-07 07:00 13.91538 122.41079 27194 ft 391 kts 303°
2026-05-07 07:00 13.92993 122.38766 26956 ft 390 kts 303°
2026-05-07 07:00 13.94464 122.36425 26715 ft 388 kts 303°
2026-05-07 07:00 13.95933 122.34086 26474 ft 387 kts 303°
2026-05-07 07:01 13.97391 122.31760 26237 ft 386 kts 303°
2026-05-07 07:01 13.98843 122.29440 26000 ft 385 kts 303°
2026-05-07 07:01 14.00290 122.27130 25771 ft 383 kts 303°
2026-05-07 07:01 14.01735 122.24829 25546 ft 382 kts 303°
2026-05-07 07:02 14.03181 122.22529 25313 ft 381 kts 303°
2026-05-07 07:02 14.04601 122.20267 25085 ft 380 kts 303°
2026-05-07 07:02 14.06033 122.17985 24860 ft 378 kts 304°
2026-05-07 07:02 14.07457 122.15710 24640 ft 377 kts 304°
2026-05-07 07:03 14.08878 122.13435 24412 ft 376 kts 303°
2026-05-07 07:03 14.10291 122.11172 24188 ft 375 kts 304°
2026-05-07 07:03 14.11701 122.08914 23947 ft 375 kts 304°
2026-05-07 07:03 14.13130 122.06631 23198 ft 383 kts 304°
2026-05-07 07:04 14.14588 122.04307 22383 ft 389 kts 304°
2026-05-07 07:04 14.16085 122.01921 21572 ft 409 kts 303°
2026-05-07 07:04 14.17675 121.99389 20782 ft 427 kts 304°
2026-05-07 07:04 14.19291 121.96809 20034 ft 430 kts 304°
2026-05-07 07:05 14.20917 121.94209 19295 ft 432 kts 303°
2026-05-07 07:05 14.22415 121.91519 18582 ft 434 kts 296°
2026-05-07 07:05 14.23648 121.88664 17832 ft 436 kts 294°
2026-05-07 07:05 14.24851 121.85839 17040 ft 437 kts 294°
2026-05-07 07:06 14.26079 121.82968 16293 ft 437 kts 294°
2026-05-07 07:06 14.27275 121.80125 15997 ft 426 kts 291°
2026-05-07 07:06 14.27973 121.77211 15611 ft 417 kts 276°
2026-05-07 07:06 14.28047 121.74223 15026 ft 415 kts 270°